Weather in Mount Laguna

United States     32°56′02″N   116°28′55″W
temp.,
°C
wind,
m/s
gust,
m/s
humid.,
%
clouds,
%
prec.,
mm/h
press.,
hPa
HPBL,
m
18 may, tue
tue1823:00+10wsw559429 0.0 1015124
02:00+9wsw669430 0.0 1015124
05:00+9wsw549426 0.0 101476
08:00+15wsw44570 0.0 1013186
11:00+23w32340 0.0 1012614
14:00+26w54270 0.0 10101371
17:00+24w45330 0.0 1009718
20:00+16wsw54630 0.0 101157
19 may, wed
wed1923:00+15wsw54560 0.0 101240
02:00+14wsw54540 0.0 101138
05:00+13wsw44530 0.0 101135
08:00+19wsw453487 0.0 1010297
11:00+24w58195 0.0 1010968
14:00+24w711235 0.0 10091163
17:00+20w7122919 0.0 1008944
20:00+12wsw6778100 0.0 1010151
20 may, thu
thu2023:00+10wsw6674100 0.0 1011114
02:00+10wsw6560100 0.0 101083
05:00+9sw556698 0.0 101061
08:00+14wsw57443 0.0 1010387
11:00+19wsw6103262 0.0 1009928
14:00+20wsw7121959 0.0 10081064
17:00+16wsw814303 0.0 1007792
20:00+7wsw7109129 0.0 1010413
21 may, fri
fri2123:00+7wsw698430 0.0 1011439
02:00+5wsw569528 0.0 1012154
05:00+5wsw559428 0.0 1013115
08:00+8wsw556614 0.0 1013369
11:00+14wsw57320 0.0 10131146
14:00+16wsw79260 0.0 10121352
17:00+13wsw912410 0.0 10131191
20:00+6wsw46787 0.0 1015251
22 may, sat
sat2223:00+4wsw449421 0.0 1018101
02:00+4wsw44899 0.0 1018157
05:00+3wsw43792 0.0 101838
08:00+10wsw44460 0.0 1017274
11:00+14w46310 0.0 10161311
14:00+17wsw88250 0.0 10141816
17:00+13wsw57430 0.0 1015920
20:00+7wsw55824 0.0 1017110